West Palm Beach, FL

1:00 AM EDT on August 18, 2019 (GMT -0400)
Palm Beach International

Weather History for KPBI - May, 2019

Change the Weather History Date:

Saturday, May 11, 2019

  Actual Average Record
Temperature  
Mean Temperature 82 °F 78 °F  
Max Temperature 87 °F 85 °F 95 °F (2011)
Min Temperature 76 °F 70 °F 50 °F (1923)
Degree Days  
Heating Degree Days 0 0  
Month to date heating degree days 0 0  
Since 1 July heating degree days 144 233  
Cooling Degree Days 17 13  
Month to date cooling degree days 156 129  
Year to date cooling degree days 1081 824  
Growing Degree Days 31 (Base 50)    
Moisture  
Dew Point 72 °F    
Average Humidity 71    
Maximum Humidity 85    
Minimum Humidity 57    
Precipitation  
Precipitation 0.02 in 0.11 in 2.31 in (1958)
Month to date precipitation 3.60 1.01  
Year to date precipitation 19.32 15.21  
Snow  
Snow 0.00 in - - ()
Month to date snowfall 0.0  
Since 1 July snowfall 0.0  
Snow Depth 0.00 in    
Sea Level Pressure  
Sea Level Pressure 29.98 in    
Wind  
Wind Speed 9 mph (SE)    
Max Wind Speed 20 mph    
Max Gust Speed 29 mph    
Visibility 10 miles    
Events Rain    
T = Trace of Precipitation, MM = Missing Value Source: NWS Daily Summary

Daily Weather History Graph

Daily Weather History Graph

Search for Another Location

Airport or City:

Astronomy

May. 11, 2019 Rise Set
Actual Time 6:35 AM EDT 7:58 PM EDT
Civil Twilight 6:10 AM EDT 8:23 PM EDT
Nautical Twilight 5:40 AM EDT 8:53 PM EDT
Astronomical Twilight 5:10 AM EDT 9:24 PM EDT
Moon 12:43 PM EDT (5/11) 1:35 AM EDT (5/11)
Length of Visible Light 14h 12m
Length of Day
13h 22m
Waxing Crescent, 46% of the Moon is Illuminated
May 11
Waxing Crescent
May 11
First Quarter
May 18
Full
May 26
Last Quarter
Jun 3
New

Hourly Weather History & Observations

Time (EDT) Temp. Heat Index Dew Point Humidity Pressure Visibility Wind Dir Wind Speed Gust Speed Precip Events Conditions
12:53 AM 78.1 °F - 73.0 °F 84% 30.02 in 10.0 mi East 5.8 mph - 0.00 in   Mostly Cloudy
1:53 AM 78.1 °F - 73.0 °F 84% 30.01 in 10.0 mi East 6.9 mph - N/A   Scattered Clouds
2:53 AM 78.1 °F - 73.0 °F 84% 29.99 in 10.0 mi East 3.5 mph - N/A   Scattered Clouds
3:53 AM 78.1 °F - 72.0 °F 81% 29.98 in 10.0 mi ESE 4.6 mph - N/A   Scattered Clouds
4:53 AM 77.0 °F - 71.1 °F 82% 29.97 in 10.0 mi ESE 5.8 mph - N/A   Scattered Clouds
5:53 AM 75.9 °F - 72.0 °F 87% 29.99 in 10.0 mi Calm Calm - 0.01 in Rain Light Rain
6:14 AM 75.9 °F - 72.0 °F 87% 29.99 in 10.0 mi SSE 5.8 mph - 0.00 in   Mostly Cloudy
6:36 AM 75.9 °F - 73.0 °F 91% 29.99 in 10.0 mi SSE 5.8 mph - 0.01 in Rain Light Rain
6:53 AM 75.9 °F - 73.0 °F 91% 30.00 in 10.0 mi South 3.5 mph - 0.01 in   Mostly Cloudy
7:53 AM 78.1 °F - 73.0 °F 84% 30.01 in 10.0 mi Calm Calm - N/A   Scattered Clouds
8:53 AM 81.0 °F 86.2 °F 73.9 °F 79% 30.01 in 10.0 mi SE 9.2 mph - 0.00 in   Scattered Clouds
9:53 AM 81.0 °F 85.8 °F 73.0 °F 77% 30.01 in 10.0 mi SSE 12.7 mph - N/A   Mostly Cloudy
10:53 AM 84.0 °F 89.6 °F 72.0 °F 67% 30.01 in 10.0 mi SSE 12.7 mph - N/A   Scattered Clouds
11:53 AM 84.9 °F 90.7 °F 72.0 °F 65% 30.00 in 10.0 mi SSE 12.7 mph - N/A   Scattered Clouds
12:53 PM 86.0 °F 91.5 °F 71.1 °F 61% 29.99 in 10.0 mi SSE 12.7 mph - N/A   Scattered Clouds
1:53 PM 86.0 °F 90.7 °F 70.0 °F 59% 29.98 in 10.0 mi SE 17.3 mph - N/A   Scattered Clouds
2:53 PM 86.0 °F 90.7 °F 70.0 °F 59% 29.96 in 10.0 mi SE 17.3 mph 28.8 mph N/A   Scattered Clouds
3:53 PM 82.0 °F 85.9 °F 70.0 °F 67% 29.96 in 10.0 mi SSE 12.7 mph - N/A   Mostly Cloudy
4:53 PM 82.0 °F 86.3 °F 71.1 °F 69% 29.94 in 10.0 mi SE 15.0 mph - N/A   Mostly Cloudy
5:53 PM 82.9 °F 87.0 °F 70.0 °F 65% 29.94 in 10.0 mi SE 16.1 mph - N/A   Mostly Cloudy
6:53 PM 81.0 °F 84.4 °F 70.0 °F 69% 29.92 in 10.0 mi SE 15.0 mph - N/A   Mostly Cloudy
7:53 PM 81.0 °F 84.1 °F 69.1 °F 67% 29.94 in 10.0 mi SSE 9.2 mph - N/A   Mostly Cloudy
8:53 PM 80.1 °F 83.6 °F 71.1 °F 74% 29.95 in 10.0 mi SSE 10.4 mph - N/A   Mostly Cloudy
9:53 PM 80.1 °F 83.6 °F 71.1 °F 74% 29.96 in 10.0 mi SSE 9.2 mph - N/A   Mostly Cloudy
10:53 PM 79.0 °F - 71.1 °F 77% 29.98 in 10.0 mi SSE 6.9 mph - N/A   Mostly Cloudy
11:53 PM 79.0 °F - 72.0 °F 79% 29.99 in 10.0 mi SSE 5.8 mph - N/A   Scattered Clouds